{"data":{"norad_id":67614,"intl_designator":"2026-019A","name":"NEONSAT-1A","alt_names":[],"object_type":"PAYLOAD","status":"ACTIVE","operator":null,"country":"SKOR","launch_date":"2026-01-30","launch_site_code":"RLLB","launch_vehicle":null,"mission":null,"orbit_class":"UNKNOWN","rcs_meters":null,"size_class":null,"mass_kg":null,"dimensions":null,"purposes":[],"wikipedia_slug":null,"has_3d_model":false,"image_url":null,"decayed_at":null,"tle_current":{"epoch":"2026-05-25T02:00:49.735872Z","epoch_age_seconds":61163,"freshness":"FRESH","line1":"1 67614U 26019A   26145.08390898  .00003046  00000+0  20022-3 0  9996","line2":"2 67614  97.4236 266.0213 0011792 271.5560  88.4318 15.08274327 17338","mean_motion":15.08274327,"eccentricity":0.0011792,"inclination_deg":97.4236,"raan_deg":266.0213,"arg_perigee_deg":271.556,"mean_anomaly_deg":88.4318,"bstar":0.00020022,"rev_number":1733,"period_min":95.473348198149,"perigee_km":533.31336132121,"apogee_km":549.63256946359,"semimajor_km":6919.6099653924,"source":"CELESTRAK","updated_at":"2026-05-25T13:38:07.121635Z"}}}